Time,TemperatureF,DewpointF,PressureIn,WindDirection,WindDirectionDegrees,WindSpeedMPH,WindSpeedGustMPH,Humidity,HourlyPrecipIn,Conditions,Clouds,dailyrainin,SoftwareType,DateUTC
2013-03-24 14:02:00,69.5,16.2,29.90,NNW,330,5.7,5.7,13,0.00,,---,0.00,VWS V12.07,2013-03-24 21:02:00,
2013-03-24 14:19:00,70.0,16.2,29.90,NNE,20,3.4,3.4,13,0.00,,---,0.00,VWS V12.07,2013-03-24 21:19:00,
2013-03-24 14:24:00,69.7,16.2,29.90,NE,53,4.2,10.2,13,1.04,,---,0.00,VWS V12.07,2013-03-24 21:24:00,
2013-03-24 14:29:00,69.1,16.6,29.89,North,359,9.4,10.2,13,0.92,,---,0.00,VWS V12.07,2013-03-24 21:29:00,
2013-03-24 14:30:00,69.2,16.5,29.89,ENE,72,0.0,10.2,13,1.04,,---,0.00,VWS V12.07,2013-03-24 21:30:00,
2013-03-24 14:34:00,69.0,16.8,29.89,NE,49,6.3,11.1,13,0.92,,---,0.00,VWS V12.07,2013-03-24 21:34:00,
2013-03-24 14:39:00,69.4,17.2,29.89,ENE,63,6.6,11.1,13,0.92,,---,0.00,VWS V12.07,2013-03-24 21:39:00,
2013-03-24 14:44:00,69.6,17.1,29.89,NNE,28,5.2,11.1,13,0.92,,---,0.00,VWS V12.07,2013-03-24 21:44:00,
2013-03-24 14:49:00,70.0,16.9,29.88,NNE,24,8.1,11.4,13,0.92,,---,0.00,VWS V12.07,2013-03-24 21:49:00,
2013-03-24 14:57:00,70.2,16.9,29.88,NE,37,5.3,10.9,13,0.92,,---,0.00,VWS V12.07,2013-03-24 21:57:00,
2013-03-24 15:00:00,70.4,17.2,29.88,East,86,4.5,10.9,13,0.92,,---,0.00,VWS V12.07,2013-03-24 22:00:00,
2013-03-24 15:02:00,70.3,16.8,29.88,NE,41,2.7,10.9,13,0.92,,---,0.00,VWS V12.07,2013-03-24 22:02:00,
2013-03-24 15:07:00,69.9,17.0,29.88,NNE,21,0.0,10.9,13,0.92,,---,0.00,VWS V12.07,2013-03-24 22:07:00,
2013-03-24 15:12:00,70.2,17.3,29.88,NE,35,6.6,13.7,13,0.92,,---,0.00,VWS V12.07,2013-03-24 22:12:00,
2013-03-24 15:17:00,70.3,17.3,29.88,NE,37,0.0,13.7,13,0.92,,---,0.00,VWS V12.07,2013-03-24 22:17:00,
2013-03-24 15:22:00,71.1,18.1,29.88,NNW,335,2.9,15.2,13,0.92,,---,0.00,VWS V12.07,2013-03-24 22:22:00,
2013-03-24 15:27:00,71.6,17.1,29.88,NW,311,9.8,17.1,12,0.92,,---,0.00,VWS V12.07,2013-03-24 22:27:00,
2013-03-24 15:30:00,71.5,16.8,29.87,SW,217,0.0,17.1,12,0.92,,---,0.00,VWS V12.07,2013-03-24 22:30:00,
2013-03-24 15:32:00,71.3,16.9,29.87,West,280,5.0,17.1,12,0.00,,---,0.00,VWS V12.07,2013-03-24 22:32:00,
2013-03-24 15:37:00,71.1,17.4,29.87,NNW,345,5.6,17.1,13,0.00,,---,0.00,VWS V12.07,2013-03-24 22:37:00,
2013-03-24 15:42:00,71.5,17.2,29.87,WNW,295,7.5,18.9,12,0.00,,---,0.00,VWS V12.07,2013-03-24 22:42:00,
2013-03-24 15:47:00,71.3,16.9,29.87,NW,305,13.9,23.5,12,0.00,,---,0.00,VWS V12.07,2013-03-24 22:47:00,
2013-03-24 15:52:00,71.3,17.4,29.87,North,11,5.3,23.5,13,0.00,,---,0.00,VWS V12.07,2013-03-24 22:52:00,
2013-03-24 15:57:00,71.4,16.9,29.86,NW,312,10.7,23.5,12,0.00,,---,0.00,VWS V12.07,2013-03-24 22:57:00,
2013-03-24 16:00:00,71.5,17.2,29.86,North,356,5.2,23.5,12,0.00,,---,0.00,VWS V12.07,2013-03-24 23:00:00,
2013-03-24 16:02:00,71.5,16.8,29.86,NNW,342,0.0,23.5,12,0.00,,---,0.00,VWS V12.07,2013-03-24 23:02:00,
2013-03-24 16:07:00,72.1,17.5,29.86,West,267,9.1,23.5,12,0.00,,---,0.00,VWS V12.07,2013-03-24 23:07:00,
2013-03-24 16:12:00,71.9,17.1,29.86,WNW,301,8.6,23.5,12,0.00,,---,0.00,VWS V12.07,2013-03-24 23:12:00,
2013-03-24 16:17:00,71.8,17.4,29.86,NW,307,11.1,23.5,12,0.00,,---,0.00,VWS V12.07,2013-03-24 23:17:00,
2013-03-24 16:22:00,71.5,17.4,29.86,NW,312,5.5,23.5,13,0.00,,---,0.00,VWS V12.07,2013-03-24 23:22:00,
2013-03-24 16:27:00,71.3,16.7,29.86,WNW,302,9.6,23.5,12,0.00,,---,0.00,VWS V12.07,2013-03-24 23:27:00,
2013-03-24 16:30:00,71.2,16.8,29.86,NW,321,8.3,20.6,12,0.00,,---,0.00,VWS V12.07,2013-03-24 23:30:00,
2013-03-24 16:32:00,71.1,17.3,29.86,WNW,292,7.8,23.5,13,0.00,,---,0.00,VWS V12.07,2013-03-24 23:32:00,
2013-03-24 16:37:00,71.4,16.6,29.86,West,278,8.9,23.5,12,0.00,,---,0.00,VWS V12.07,2013-03-24 23:37:00,
2013-03-24 16:42:00,71.2,16.4,29.86,NNW,332,7.6,23.5,12,0.00,,---,0.00,VWS V12.07,2013-03-24 23:42:00,
2013-03-24 16:47:00,70.8,16.3,29.86,WNW,285,6.4,23.5,12,0.00,,---,0.00,VWS V12.07,2013-03-24 23:47:00,
2013-03-24 16:52:00,70.8,16.1,29.86,North,1,7.6,23.5,12,0.00,,---,0.00,VWS V12.07,2013-03-24 23:52:00,
2013-03-24 16:57:00,70.2,15.8,29.86,NW,305,9.5,18.8,12,0.00,,---,0.00,VWS V12.07,2013-03-24 23:57:00,
2013-03-24 17:00:00,70.2,16.0,29.86,NW,309,11.1,18.8,12,0.00,,---,0.00,VWS V12.07,2013-03-25 00:00:00,
2013-03-24 17:02:00,70.2,16.0,29.86,NW,309,15.7,18.8,12,0.00,,---,0.00,VWS V12.07,2013-03-25 00:02:00,
2013-03-24 17:08:00,70.2,16.2,29.87,West,264,12.2,18.8,12,0.00,,---,0.00,VWS V12.07,2013-03-25 00:08:00,
2013-03-24 17:13:00,69.9,15.9,29.87,WNW,283,4.7,18.8,12,0.00,,---,0.00,VWS V12.07,2013-03-25 00:13:00,
2013-03-24 17:18:00,69.7,16.3,29.86,NW,316,7.6,18.8,13,0.00,,---,0.00,VWS V12.07,2013-03-25 00:18:00,
2013-03-24 17:23:00,69.5,15.6,29.86,WNW,298,5.4,18.8,12,0.00,,---,0.00,VWS V12.07,2013-03-25 00:23:00,
2013-03-24 17:28:00,69.4,15.9,29.87,WNW,287,6.2,19.5,13,0.00,,---,0.00,VWS V12.07,2013-03-25 00:28:00,
2013-03-24 17:30:00,69.4,15.9,29.86,North,3,7.8,19.5,13,0.00,,---,0.00,VWS V12.07,2013-03-25 00:30:00,
2013-03-24 17:33:00,69.1,15.9,29.86,NW,304,6.8,19.5,13,0.00,,---,0.00,VWS V12.07,2013-03-25 00:33:00,
2013-03-24 17:38:00,68.9,16.1,29.87,WNW,288,10.6,19.5,13,0.00,,---,0.00,VWS V12.07,2013-03-25 00:38:00,
2013-03-24 17:43:00,68.6,16.2,29.87,WNW,295,5.7,19.5,13,0.00,,---,0.00,VWS V12.07,2013-03-25 00:43:00,
2013-03-24 17:48:00,68.5,16.1,29.87,WNW,298,3.5,19.5,13,0.00,,---,0.00,VWS V12.07,2013-03-25 00:48:00,
2013-03-24 17:53:00,68.3,16.3,29.87,NW,311,7.8,19.5,13,0.00,,---,0.00,VWS V12.07,2013-03-25 00:53:00,
2013-03-24 17:58:00,67.9,16.3,29.87,NW,305,6.1,17.0,14,0.00,,---,0.00,VWS V12.07,2013-03-25 00:58:00,
2013-03-24 18:00:00,67.7,16.1,29.87,NW,304,8.7,17.0,14,0.00,,---,0.00,VWS V12.07,2013-03-25 01:00:00,
2013-03-24 18:03:00,67.4,16.2,29.87,WSW,252,5.7,17.0,14,0.00,,---,0.00,VWS V12.07,2013-03-25 01:03:00,
2013-03-24 18:08:00,66.9,16.2,29.87,NW,315,5.2,17.0,14,0.00,,---,0.00,VWS V12.07,2013-03-25 01:08:00,
2013-03-24 18:13:00,66.4,16.1,29.88,NNW,335,3.5,17.0,14,0.00,,---,0.00,VWS V12.07,2013-03-25 01:13:00,
2013-03-24 18:18:00,66.0,15.8,29.87,WNW,295,4.8,17.5,14,0.00,,---,0.00,VWS V12.07,2013-03-25 01:18:00,
2013-03-24 18:23:00,65.7,16.0,29.88,West,281,7.3,17.5,14,0.00,,---,0.00,VWS V12.07,2013-03-25 01:23:00,
2013-03-24 18:28:00,65.5,16.0,29.88,WNW,295,0.0,17.5,15,0.00,,---,0.00,VWS V12.07,2013-03-25 01:28:00,
2013-03-24 18:30:00,65.2,15.8,29.88,WNW,300,9.7,17.5,15,0.00,,---,0.00,VWS V12.07,2013-03-25 01:30:00,
2013-03-24 18:33:00,65.1,15.9,29.88,NW,304,4.6,17.5,15,0.00,,---,0.00,VWS V12.07,2013-03-25 01:33:00,
2013-03-24 18:38:00,64.8,15.6,29.88,WNW,298,11.5,17.5,15,0.00,,---,0.00,VWS V12.07,2013-03-25 01:38:00,
2013-03-24 18:43:00,64.7,15.7,29.88,NW,319,4.6,17.5,15,0.00,,---,0.00,VWS V12.07,2013-03-25 01:43:00,
2013-03-24 18:48:00,64.4,15.6,29.88,WNW,298,3.2,17.5,15,0.00,,---,0.00,VWS V12.07,2013-03-25 01:48:00,
2013-03-24 18:53:00,64.2,15.6,29.88,NW,309,5.6,17.5,15,0.00,,---,0.00,VWS V12.07,2013-03-25 01:53:00,
2013-03-24 18:58:00,63.9,15.7,29.88,NW,326,5.2,13.1,15,0.00,,---,0.00,VWS V12.07,2013-03-25 01:58:00,
2013-03-24 19:00:00,63.9,15.7,29.88,WNW,298,8.1,13.1,15,0.00,,---,0.00,VWS V12.07,2013-03-25 02:00:00,
2013-03-24 19:03:00,63.7,15.8,29.88,West,277,5.2,13.1,15,0.00,,---,0.00,VWS V12.07,2013-03-25 02:03:00,
2013-03-24 19:08:00,63.5,15.9,29.88,NW,309,9.1,13.1,16,0.00,,---,0.00,VWS V12.07,2013-03-25 02:08:00,
2013-03-24 19:13:00,63.3,15.9,29.89,NW,318,8.4,13.1,16,0.00,,---,0.00,VWS V12.07,2013-03-25 02:13:00,
2013-03-24 19:18:00,63.2,15.9,29.89,NW,305,7.0,13.1,16,0.00,,---,0.00,VWS V12.07,2013-03-25 02:18:00,
2013-03-24 19:23:00,62.9,15.8,29.89,NW,314,6.9,13.1,16,0.00,,---,0.00,VWS V12.07,2013-03-25 02:23:00,
2013-03-24 19:28:00,62.8,15.5,29.89,NW,319,4.3,13.1,16,0.00,,---,0.00,VWS V12.07,2013-03-25 02:28:00,
2013-03-24 19:30:00,62.8,15.5,29.89,WNW,284,7.1,12.8,16,0.00,,---,0.00,VWS V12.07,2013-03-25 02:30:00,
2013-03-24 19:33:00,62.6,15.5,29.89,NNW,335,5.4,13.1,16,0.00,,---,0.00,VWS V12.07,2013-03-25 02:33:00,
2013-03-24 19:38:00,62.4,15.4,29.89,WNW,295,5.2,13.1,16,0.00,,---,0.00,VWS V12.07,2013-03-25 02:38:00,
2013-03-24 19:43:00,62.3,15.3,29.89,WNW,295,4.7,13.1,16,0.00,,---,0.00,VWS V12.07,2013-03-25 02:43:00,
2013-03-24 19:48:00,62.3,15.1,29.89,NNW,340,2.2,13.9,16,0.00,,---,0.00,VWS V12.07,2013-03-25 02:48:00,
2013-03-24 19:53:00,62.2,15.1,29.89,WNW,283,6.3,13.9,16,0.00,,---,0.00,VWS V12.07,2013-03-25 02:53:00,
2013-03-24 19:58:00,62.1,15.0,29.90,NW,305,9.1,13.9,16,0.00,,---,0.00,VWS V12.07,2013-03-25 02:58:00,
2013-03-24 20:00:00,62.1,15.0,29.90,NW,326,6.0,13.9,16,0.00,,---,0.00,VWS V12.07,2013-03-25 03:00:00,
2013-03-24 20:03:00,61.9,14.8,29.90,West,267,10.6,13.9,16,0.00,,---,0.00,VWS V12.07,2013-03-25 03:03:00,
2013-03-24 20:08:00,61.8,14.6,29.90,WNW,292,6.2,13.9,16,0.00,,---,0.00,VWS V12.07,2013-03-25 03:08:00,
2013-03-24 20:13:00,61.8,14.6,29.91,NW,318,5.8,13.9,16,0.00,,---,0.00,VWS V12.07,2013-03-25 03:13:00,
2013-03-24 20:18:00,61.7,14.5,29.91,NW,321,5.1,13.9,16,0.00,,---,0.00,VWS V12.07,2013-03-25 03:18:00,
2013-03-24 20:23:00,61.5,14.3,29.91,North,3,4.2,13.9,16,0.00,,---,0.00,VWS V12.07,2013-03-25 03:23:00,
2013-03-24 20:28:00,61.5,14.0,29.91,NNW,329,3.4,13.9,15,0.00,,---,0.00,VWS V12.07,2013-03-25 03:28:00,
2013-03-24 20:30:00,61.4,14.0,29.91,West,280,2.7,13.2,15,0.00,,---,0.00,VWS V12.07,2013-03-25 03:30:00,
2013-03-24 20:33:00,61.3,13.7,29.92,NNW,338,4.2,13.9,15,0.00,,---,0.00,VWS V12.07,2013-03-25 03:33:00,
2013-03-24 20:38:00,61.1,13.6,29.92,NNW,346,6.0,13.9,15,0.00,,---,0.00,VWS V12.07,2013-03-25 03:38:00,
2013-03-24 20:43:00,60.8,14.4,29.92,NNW,340,7.5,13.9,16,0.00,,---,0.00,VWS V12.07,2013-03-25 03:43:00,
2013-03-24 20:48:00,59.9,15.0,29.92,NW,314,4.3,13.9,17,0.00,,---,0.00,VWS V12.07,2013-03-25 03:48:00,
2013-03-24 20:53:00,59.2,15.4,29.92,NNE,18,5.2,13.9,18,0.00,,---,0.00,VWS V12.07,2013-03-25 03:53:00,
2013-03-24 20:58:00,58.7,15.3,29.93,NNW,335,0.0,9.8,18,0.00,,---,0.00,VWS V12.07,2013-03-25 03:58:00,
2013-03-24 21:00:00,58.6,15.2,29.93,NNW,328,5.1,9.8,18,0.00,,---,0.00,VWS V12.07,2013-03-25 04:00:00,
2013-03-24 21:05:00,58.3,15.0,29.93,NNW,345,0.0,9.8,18,0.00,,---,0.00,VWS V12.07,2013-03-25 04:05:00,